Location: Unspecified
(49.2170°N, 0.0000°E)
Time: 14:02:19
(UTC+00:00)

Transit 2A - All Passes

Search period start: 23 January 2021 00:00
Search period end: 02 February 2021 00:00
Orbit: 598 x 960 km, 66.7° (Epoch: 22 January)

Date Brightness Start Highest point End Pass type
(mag) Time Alt. Az. Time Alt. Az. Time Alt. Az.
23 Jan - 03:02:47 10° SSE 03:07:13 23° ESE 03:11:23 10° ENE visible
23 Jan - 04:44:14 10° SW 04:50:01 74° NW 04:55:17 10° NNE visible
23 Jan - 06:29:54 10° W 06:34:01 21° NNW 06:37:51 10° NNE visible
23 Jan - 08:18:14 10° NNW 08:19:12 10° N 08:20:09 10° N daylight
23 Jan - 10:02:09 10° N 10:04:39 14° NNE 10:07:04 10° NE daylight
23 Jan - 11:44:38 10° NNW 11:49:09 43° NE 11:53:21 10° ESE daylight
23 Jan - 13:28:11 10° NW 13:32:05 28° WSW 13:35:49 10° S daylight
24 Jan - 02:29:50 10° SE 02:33:15 16° ESE 02:36:31 10° ENE visible
24 Jan - 04:10:01 10° SSW 04:15:50 84° SE 04:21:07 10° NE visible
24 Jan - 05:55:01 10° W 05:59:35 25° NW 06:03:50 10° NNE visible
24 Jan - 07:43:01 10° NNW 07:44:34 11° NNW 07:46:05 10° N daylight
24 Jan - 09:28:09 10° N 09:30:05 12° NNE 09:31:56 10° NE daylight
24 Jan - 11:10:33 10° NNW 11:14:49 32° NE 11:18:49 10° ESE daylight
24 Jan - 12:53:45 10° NW 12:58:05 41° WSW 13:02:09 10° S daylight
25 Jan - 01:57:51 10° ESE 01:59:20 11° ESE 02:00:47 10° E visible
25 Jan - 03:35:56 10° SSW 03:41:41 62° ESE 03:46:54 10° NE visible
25 Jan - 05:20:13 10° WSW 05:25:12 31° NW 05:29:46 10° NNE visible
25 Jan - 07:07:47 10° NW 07:09:57 12° NNW 07:12:04 10° N visible
25 Jan - 08:54:11 10° N 08:55:28 11° N 08:56:43 10° NNE daylight
25 Jan - 10:36:30 10° NNW 10:40:26 25° NE 10:44:09 10° E daylight
25 Jan - 12:19:27 10° NW 12:24:00 62° WSW 12:28:17 10° SSE daylight
26 Jan - 03:02:04 10° S 03:07:35 45° ESE 03:12:37 10° NE visible
26 Jan - 04:45:33 10° WSW 04:50:51 40° NW 04:55:43 10° NNE visible
26 Jan - 06:32:36 10° NW 06:35:23 14° NNW 06:38:03 10° N visible
26 Jan - 08:20:16 10° N 08:20:51 10° N 08:21:25 10° NNE daylight
26 Jan - 10:02:28 10° NNW 10:06:01 20° NNE 10:09:21 10° E daylight
26 Jan - 11:45:13 10° NW 11:49:52 89° WSW 11:54:14 10° SE daylight
26 Jan - 13:30:31 10° W 13:32:09 12° WSW 13:33:46 10° SW daylight
27 Jan - 02:28:23 10° S 02:33:30 33° ESE 02:38:13 10° NE visible
27 Jan - 04:11:00 10° SW 04:16:35 52° NW 04:21:37 10° NNE visible
27 Jan - 05:57:29 10° WNW 06:00:51 17° NNW 06:04:03 10° NNE visible
27 Jan - 09:28:27 10° NNW 09:31:31 17° NNE 09:34:27 10° ENE daylight
27 Jan - 11:11:03 10° NNW 11:15:41 64° NE 11:20:00 10° SE daylight
27 Jan - 12:55:14 10° WNW 12:58:14 18° WSW 13:01:11 10° SSW daylight
28 Jan - 01:54:58 10° SSE 01:59:28 24° ESE 02:03:42 10° ENE visible
28 Jan - 03:36:36 10° SW 03:42:20 69° NW 03:47:31 10° NNE visible
28 Jan - 05:22:26 10° WNW 05:26:22 20° NNW 05:30:02 10° NNE visible
28 Jan - 07:11:05 10° N 07:11:34 10° N 07:12:03 10° N daylight
28 Jan - 08:54:28 10° N 08:57:00 14° NNE 08:59:26 10° NE daylight
28 Jan - 10:36:55 10° NNW 10:41:25 46° NE 10:45:38 10° ESE daylight
28 Jan - 12:20:33 10° NW 12:24:18 26° WSW 12:27:54 10° SSW daylight
29 Jan - 01:21:55 10° SSE 01:25:30 17° ESE 01:28:54 10° ENE night (unlit)
29 Jan - 03:02:22 10° SSW 03:08:08 89° SE 03:13:21 10° NE visible
29 Jan - 04:47:31 10° W 04:51:55 24° NW 04:56:00 10° NNE visible
29 Jan - 06:35:42 10° NNW 06:36:56 11° N 06:38:09 10° N visible
29 Jan - 08:20:30 10° N 08:22:26 12° NNE 08:24:17 10° NE daylight
29 Jan - 10:02:50 10° NNW 10:07:07 34° NE 10:11:08 10° ESE daylight
29 Jan - 11:46:05 10° NW 11:50:18 38° WSW 11:54:19 10° S daylight
30 Jan - 00:49:39 10° SE 00:51:35 12° ESE 00:53:26 10° E night (unlit)
30 Jan - 02:28:16 10° SSW 02:33:59 66° ESE 02:39:09 10° NE visible
30 Jan - 04:12:42 10° W 04:17:31 30° NW 04:21:58 10° NNE visible
30 Jan - 06:00:25 10° NW 06:02:19 12° NNW 06:04:11 10° N visible
30 Jan - 07:46:35 10° N 07:47:49 11° NNE 07:49:03 10° NNE daylight
30 Jan - 09:28:47 10° NNW 09:32:45 26° NE 09:36:29 10° E daylight
30 Jan - 11:11:46 10° NW 11:16:14 57° WSW 11:20:28 10° SSE daylight
31 Jan - 01:54:21 10° S 01:59:52 48° ESE 02:04:53 10° NE visible
31 Jan - 03:38:00 10° WSW 03:43:11 38° NW 03:47:55 10° NNE visible
31 Jan - 05:25:11 10° NW 05:27:45 13° NNW 05:30:11 10° N visible
31 Jan - 07:12:55 10° N 07:13:12 10° N 07:13:29 10° N daylight
31 Jan - 08:54:45 10° NNW 08:58:19 21° NNE 09:01:43 10° E daylight
31 Jan - 10:37:30 10° NW 10:42:07 83° WSW 10:46:27 10° SSE daylight
31 Jan - 12:23:19 10° W 12:24:21 11° WSW 12:25:22 10° WSW daylight
01 Feb - 01:20:38 10° S 01:25:47 35° ESE 01:30:31 10° NE night (unlit)
01 Feb - 03:03:26 10° WSW 03:08:53 49° NW 03:13:50 10° NNE visible
01 Feb - 04:50:02 10° WNW 04:53:12 16° NNW 04:56:12 10° NNE visible
01 Feb - 08:20:45 10° NNW 08:23:50 17° NNE 08:26:49 10° ENE daylight
01 Feb - 10:03:20 10° NNW 10:07:56 69° NE 10:12:15 10° SE daylight
01 Feb - 11:47:40 10° WNW 11:50:27 16° WSW 11:53:10 10° SSW daylight
